TimeEDT,TemperatureF,Dew PointF,Humidity,Sea Level PressureIn,VisibilityMPH,Wind Direction,Wind SpeedMPH,Gust SpeedMPH,PrecipitationIn,Events,Conditions,WindDirDegrees,DateUTC
12:53 AM,51.8,37.4,58,29.57,10.0,West,11.5,20.7,N/A,,Scattered Clouds,280,2011-10-15 04:53:00
1:53 AM,50.0,37.9,63,29.58,10.0,West,10.4,-,0.01,Rain,Light Rain,280,2011-10-15 05:53:00
2:53 AM,46.9,42.1,83,29.59,10.0,West,6.9,-,0.03,Rain,Light Rain,280,2011-10-15 06:53:00
3:53 AM,50.0,39.0,66,29.58,10.0,West,11.5,-,0.00,,Mostly Cloudy,280,2011-10-15 07:53:00
4:53 AM,51.8,37.4,58,29.58,10.0,WNW,18.4,29.9,N/A,,Overcast,290,2011-10-15 08:53:00
5:53 AM,51.1,37.0,59,29.60,10.0,WNW,16.1,26.5,N/A,,Overcast,290,2011-10-15 09:53:00
6:53 AM,51.1,35.1,54,29.62,10.0,WNW,19.6,31.1,N/A,,Overcast,300,2011-10-15 10:53:00
7:53 AM,50.0,35.1,57,29.64,10.0,WNW,12.7,28.8,N/A,,Overcast,290,2011-10-15 11:53:00
8:53 AM,50.0,35.6,58,29.65,10.0,WNW,21.9,42.6,N/A,,Overcast,290,2011-10-15 12:53:00
9:53 AM,51.8,35.6,54,29.67,10.0,WNW,21.9,28.8,N/A,,Overcast,290,2011-10-15 13:53:00
10:53 AM,51.1,36.0,56,29.69,10.0,West,24.2,36.8,N/A,,Overcast,280,2011-10-15 14:53:00
11:53 AM,54.0,37.0,53,29.71,10.0,West,18.4,35.7,N/A,,Overcast,280,2011-10-15 15:53:00
12:53 PM,53.6,37.4,54,29.72,10.0,WNW,26.5,34.5,N/A,,Overcast,290,2011-10-15 16:53:00
1:53 PM,55.4,37.4,51,29.73,10.0,WNW,23.0,38.0,N/A,,Mostly Cloudy,290,2011-10-15 17:53:00
2:53 PM,55.9,37.0,49,29.75,10.0,West,23.0,36.8,N/A,,Mostly Cloudy,270,2011-10-15 18:53:00
3:53 PM,55.9,35.1,45,29.76,10.0,West,24.2,36.8,N/A,,Mostly Cloudy,280,2011-10-15 19:53:00
4:53 PM,57.0,34.0,42,29.78,10.0,West,25.3,36.8,N/A,,Mostly Cloudy,280,2011-10-15 20:53:00
5:53 PM,55.4,33.8,44,29.78,10.0,West,17.3,28.8,N/A,,Scattered Clouds,280,2011-10-15 21:53:00
6:53 PM,55.0,35.1,47,29.81,10.0,West,11.5,27.6,N/A,,Clear,270,2011-10-15 22:53:00
7:53 PM,53.6,35.6,51,29.81,10.0,WSW,9.2,-,N/A,,Clear,250,2011-10-15 23:53:00
8:53 PM,53.1,37.0,55,29.82,10.0,WSW,8.1,-,N/A,,Clear,250,2011-10-16 00:53:00
9:53 PM,53.1,37.0,55,29.82,10.0,WSW,8.1,-,N/A,,Clear,250,2011-10-16 01:53:00
10:53 PM,54.0,37.9,55,29.83,10.0,West,9.2,-,N/A,,Clear,260,2011-10-16 02:53:00
11:53 PM,55.0,37.9,53,29.83,10.0,West,10.4,-,N/A,,Clear,260,2011-10-16 03:53:00